Find Starlink 32710

NORAD ID: 62604 Int'l Des: 2025-008 Owner: SPXS Country: US Constellation: starlink operational
LEOCIRCULAR

Live-Position

3D-Globus wird geladen...

Über Starlink 32710

Beschreibung wird geladen...

Nächste Überflüge

Passes for default location (London). Set your location on the main map for personalized predictions.

Höhenverlauf

Loading altitude history...

Zweizeiliger Elementsatz

1 62604U 25008T 26125.87261795 .00023211 00000-0 84967-3 0 9990
2 62604 43.0021 314.6473 0001640 262.5009 97.5656 15.27605847 74311
Epoch: 5. Mai 2026 • Age: 9 hours

Aktueller Status

Höhe 486.3 km
Geschwindigkeit 7.62 km/s
Subsatellitenpunkt -17.98°S, 25.54°W
Startdatum 13. Jan. 2025
Alter 1.3 years
Typ internet

Technische Details

Klassifizierung Payload
Masse 730.00 kg
Trockenmasse 700.00 kg
Gesamtmasse 730.00 kg
Länge 0.30 m
Durchmesser 4.10 m
Spannweite 29.00 m
Form Box + pan
Hersteller SPXS
Bus-Typ Starlink V2M
Phasenstatus In Orbit
Besitzer/Staat SPXS/US

Most Searched